Year,Month,Day,Hour,Minute,Value (Times are PST for temperature in C)
2017,07,15,00,00,15.60
2017,07,15,00,01,15.50
2017,07,15,00,02,15.40
2017,07,15,00,03,15.40
2017,07,15,00,04,15.30
2017,07,15,00,05,15.30
2017,07,15,00,06,15.30
2017,07,15,00,07,15.30
2017,07,15,00,08,15.30
2017,07,15,00,09,15.30
2017,07,15,00,10,15.40
2017,07,15,00,11,15.50
2017,07,15,00,12,15.60
2017,07,15,00,13,15.70
2017,07,15,00,14,15.70
2017,07,15,00,15,15.70
2017,07,15,00,16,15.60
2017,07,15,00,17,15.60
2017,07,15,00,18,15.60
2017,07,15,00,19,15.50
2017,07,15,00,20,15.50
2017,07,15,00,21,15.40
2017,07,15,00,22,15.50
2017,07,15,00,23,15.50
2017,07,15,00,24,15.50
2017,07,15,00,25,15.60
2017,07,15,00,26,15.60
2017,07,15,00,27,15.70
2017,07,15,00,28,15.70
2017,07,15,00,29,15.80
2017,07,15,00,30,15.80
2017,07,15,00,31,15.90
2017,07,15,00,32,16.00
2017,07,15,00,33,16.10
2017,07,15,00,34,16.10
2017,07,15,00,35,16.20
2017,07,15,00,36,16.20
2017,07,15,00,37,16.20
2017,07,15,00,38,16.20
2017,07,15,00,39,16.20
2017,07,15,00,40,16.20
2017,07,15,00,41,16.20
2017,07,15,00,42,16.10
2017,07,15,00,43,16.10
2017,07,15,00,44,16.00
2017,07,15,00,45,16.00
2017,07,15,00,46,15.90
2017,07,15,00,47,15.90
2017,07,15,00,48,15.90
2017,07,15,00,49,15.80
2017,07,15,00,50,15.80
2017,07,15,00,51,15.80
2017,07,15,00,52,15.80
2017,07,15,00,53,15.90
2017,07,15,00,54,15.90
2017,07,15,00,55,16.00
2017,07,15,00,56,16.00
2017,07,15,00,57,16.10
2017,07,15,00,58,16.10
2017,07,15,00,59,16.20
2017,07,15,01,00,16.20
2017,07,15,01,01,16.30
2017,07,15,01,02,16.30
2017,07,15,01,03,16.30
2017,07,15,01,04,16.30
2017,07,15,01,05,16.30
2017,07,15,01,06,16.30
2017,07,15,01,07,16.20
2017,07,15,01,08,16.20
2017,07,15,01,09,16.10
2017,07,15,01,10,16.00
2017,07,15,01,11,15.80
2017,07,15,01,12,15.70
2017,07,15,01,13,15.60
2017,07,15,01,14,15.50
2017,07,15,01,15,15.40
2017,07,15,01,16,15.30
2017,07,15,01,17,15.30
2017,07,15,01,18,15.20
2017,07,15,01,19,15.20
2017,07,15,01,20,15.20
2017,07,15,01,21,15.20
2017,07,15,01,22,15.20
2017,07,15,01,23,15.20
2017,07,15,01,24,15.20
2017,07,15,01,25,15.20
2017,07,15,01,26,15.10
2017,07,15,01,27,15.10
2017,07,15,01,28,15.10
2017,07,15,01,29,15.10
2017,07,15,01,30,15.20
2017,07,15,01,31,15.10
2017,07,15,01,32,15.10
2017,07,15,01,33,15.00
2017,07,15,01,34,15.00
2017,07,15,01,35,15.00
2017,07,15,01,36,15.00
2017,07,15,01,37,15.00
2017,07,15,01,38,15.00
2017,07,15,01,39,15.00
2017,07,15,01,40,15.00
2017,07,15,01,41,15.00
2017,07,15,01,42,15.00
2017,07,15,01,43,15.00
2017,07,15,01,44,15.00
2017,07,15,01,45,15.00
2017,07,15,01,46,15.00
2017,07,15,01,47,15.00
2017,07,15,01,48,15.00
2017,07,15,01,49,15.00
2017,07,15,01,50,15.00
2017,07,15,01,51,15.00
2017,07,15,01,52,15.00
2017,07,15,01,53,15.00
2017,07,15,01,54,15.00
2017,07,15,01,55,15.00
2017,07,15,01,56,15.00
2017,07,15,01,57,15.00
2017,07,15,01,58,15.00
2017,07,15,01,59,15.00
2017,07,15,02,00,15.00
2017,07,15,02,01,15.00
2017,07,15,02,02,15.00
2017,07,15,02,03,15.00
2017,07,15,02,04,15.00
2017,07,15,02,05,15.00
2017,07,15,02,06,15.00
2017,07,15,02,07,15.00
2017,07,15,02,08,15.00
2017,07,15,02,09,15.00
2017,07,15,02,10,14.90
2017,07,15,02,11,14.80
2017,07,15,02,12,14.80
2017,07,15,02,13,14.80
2017,07,15,02,14,14.80
2017,07,15,02,15,14.80
2017,07,15,02,16,14.80
2017,07,15,02,17,14.80
2017,07,15,02,18,14.80
2017,07,15,02,19,14.80
2017,07,15,02,20,14.80
2017,07,15,02,21,14.90
2017,07,15,02,22,14.90
2017,07,15,02,23,14.80
2017,07,15,02,24,14.70
2017,07,15,02,25,14.70
2017,07,15,02,26,14.60
2017,07,15,02,27,14.60
2017,07,15,02,28,14.50
2017,07,15,02,29,14.50
2017,07,15,02,30,14.50
2017,07,15,02,31,14.50
2017,07,15,02,32,14.50
2017,07,15,02,33,14.50
2017,07,15,02,34,14.60
2017,07,15,02,35,14.60
2017,07,15,02,36,14.60
2017,07,15,02,37,14.60
2017,07,15,02,38,14.60
2017,07,15,02,39,14.60
2017,07,15,02,40,14.50
2017,07,15,02,41,14.40
2017,07,15,02,42,14.30
2017,07,15,02,43,14.30
2017,07,15,02,44,14.20
2017,07,15,02,45,14.10
2017,07,15,02,46,14.10
2017,07,15,02,47,14.10
2017,07,15,02,48,14.10
2017,07,15,02,49,14.10
2017,07,15,02,50,14.10
2017,07,15,02,51,14.10
2017,07,15,02,52,14.10
2017,07,15,02,53,14.00
2017,07,15,02,54,14.00
2017,07,15,02,55,13.90
2017,07,15,02,56,13.90
2017,07,15,02,57,13.80
2017,07,15,02,58,13.80
2017,07,15,02,59,13.70
2017,07,15,03,00,13.70
2017,07,15,03,01,13.60
2017,07,15,03,02,13.50
2017,07,15,03,03,13.50
2017,07,15,03,04,13.50
2017,07,15,03,05,13.50
2017,07,15,03,06,13.60
2017,07,15,03,07,13.70
2017,07,15,03,08,13.80
2017,07,15,03,09,13.80
2017,07,15,03,10,13.90
2017,07,15,03,11,14.00
2017,07,15,03,12,14.10
2017,07,15,03,13,14.10
2017,07,15,03,14,14.20
2017,07,15,03,15,14.20
2017,07,15,03,16,14.30
2017,07,15,03,17,14.30
2017,07,15,03,18,14.20
2017,07,15,03,19,14.20
2017,07,15,03,20,14.20
2017,07,15,03,21,14.20
2017,07,15,03,22,14.20
2017,07,15,03,23,14.10
2017,07,15,03,24,14.00
2017,07,15,03,25,14.00
2017,07,15,03,26,14.00
2017,07,15,03,27,13.90
2017,07,15,03,28,14.00
2017,07,15,03,29,14.00
2017,07,15,03,30,14.00
2017,07,15,03,31,14.10
2017,07,15,03,32,14.10
2017,07,15,03,33,14.00
2017,07,15,03,34,13.90
2017,07,15,03,35,13.80
2017,07,15,03,36,13.80
2017,07,15,03,37,13.70
2017,07,15,03,38,13.70
2017,07,15,03,39,13.60
2017,07,15,03,40,13.50
2017,07,15,03,41,13.40
2017,07,15,03,42,13.30
2017,07,15,03,43,13.20
2017,07,15,03,44,13.10
2017,07,15,03,45,13.00
2017,07,15,03,46,12.90
2017,07,15,03,47,12.70
2017,07,15,03,48,12.60
2017,07,15,03,49,12.50
2017,07,15,03,50,12.40
2017,07,15,03,51,12.40
2017,07,15,03,52,12.30
2017,07,15,03,53,12.30
2017,07,15,03,54,12.20
2017,07,15,03,55,12.20
2017,07,15,03,56,12.20
2017,07,15,03,57,12.20
2017,07,15,03,58,12.20
2017,07,15,03,59,12.20
2017,07,15,04,00,12.20
2017,07,15,04,01,12.30
2017,07,15,04,02,12.40
2017,07,15,04,03,12.50
2017,07,15,04,04,12.60
2017,07,15,04,05,12.60
2017,07,15,04,06,12.70
2017,07,15,04,07,12.70
2017,07,15,04,08,12.80
2017,07,15,04,09,12.80
2017,07,15,04,10,12.80
2017,07,15,04,11,12.70
2017,07,15,04,12,12.70
2017,07,15,04,13,12.70
2017,07,15,04,14,12.70
2017,07,15,04,15,12.70
2017,07,15,04,16,12.70
2017,07,15,04,17,12.70
2017,07,15,04,18,12.70
2017,07,15,04,19,12.70
2017,07,15,04,20,12.70
2017,07,15,04,21,12.60
2017,07,15,04,22,12.50
2017,07,15,04,23,12.50
2017,07,15,04,24,12.40
2017,07,15,04,25,12.40
2017,07,15,04,26,12.40
2017,07,15,04,27,12.40
2017,07,15,04,28,12.40
2017,07,15,04,29,12.40
2017,07,15,04,30,12.40
2017,07,15,04,31,12.40
2017,07,15,04,32,12.40
2017,07,15,04,33,12.40
2017,07,15,04,34,12.40
2017,07,15,04,35,12.30
2017,07,15,04,36,12.30
2017,07,15,04,37,12.30
2017,07,15,04,38,12.20
2017,07,15,04,39,12.20
2017,07,15,04,40,12.20
2017,07,15,04,41,12.10
2017,07,15,04,42,12.00
2017,07,15,04,43,12.00
2017,07,15,04,44,11.90
2017,07,15,04,45,11.80
2017,07,15,04,46,11.80
2017,07,15,04,47,11.80
2017,07,15,04,48,11.70
2017,07,15,04,49,11.70
2017,07,15,04,50,11.60
2017,07,15,04,51,11.60
2017,07,15,04,52,11.60
2017,07,15,04,53,11.60
2017,07,15,04,54,11.60
2017,07,15,04,55,11.50
2017,07,15,04,56,11.60
2017,07,15,04,57,11.50
2017,07,15,04,58,11.60
2017,07,15,04,59,11.60
2017,07,15,05,00,11.50
2017,07,15,05,01,11.50
2017,07,15,05,02,11.50
2017,07,15,05,03,11.50
2017,07,15,05,04,11.60
2017,07,15,05,05,11.60
2017,07,15,05,06,11.70
2017,07,15,05,07,11.70
2017,07,15,05,08,11.80
2017,07,15,05,09,11.80
2017,07,15,05,10,11.80
2017,07,15,05,11,11.90
2017,07,15,05,12,11.90
2017,07,15,05,13,11.90
2017,07,15,05,14,11.90
2017,07,15,05,15,11.90
2017,07,15,05,16,11.90
2017,07,15,05,17,11.90
2017,07,15,05,18,11.80
2017,07,15,05,19,11.80
2017,07,15,05,20,11.70
2017,07,15,05,21,11.60
2017,07,15,05,22,11.50
2017,07,15,05,23,11.40
2017,07,15,05,24,11.30
2017,07,15,05,25,11.20
2017,07,15,05,26,11.20
2017,07,15,05,27,11.20
2017,07,15,05,28,11.20
2017,07,15,05,29,11.10
2017,07,15,05,30,11.20
2017,07,15,05,31,11.20
2017,07,15,05,32,11.20
2017,07,15,05,33,11.20
2017,07,15,05,34,11.20
2017,07,15,05,35,11.40
2017,07,15,05,36,11.50
2017,07,15,05,37,11.70
2017,07,15,05,38,11.80
2017,07,15,05,39,11.90
2017,07,15,05,40,12.00
2017,07,15,05,41,12.10
2017,07,15,05,42,12.10
2017,07,15,05,43,12.10
2017,07,15,05,44,12.10
2017,07,15,05,45,12.00
2017,07,15,05,46,12.00
2017,07,15,05,47,11.90
2017,07,15,05,48,11.80
2017,07,15,05,49,11.80
2017,07,15,05,50,11.70
2017,07,15,05,51,11.70
2017,07,15,05,52,11.60
2017,07,15,05,53,11.60
2017,07,15,05,54,11.50
2017,07,15,05,55,11.40
2017,07,15,05,56,11.20
2017,07,15,05,57,11.10
2017,07,15,05,58,11.00
2017,07,15,05,59,11.00
2017,07,15,06,00,10.90
2017,07,15,06,01,10.90
2017,07,15,06,02,10.80
2017,07,15,06,03,10.80
2017,07,15,06,04,10.80
2017,07,15,06,05,10.80
2017,07,15,06,06,10.80
2017,07,15,06,07,10.90
2017,07,15,06,08,10.90
2017,07,15,06,09,11.00
2017,07,15,06,10,11.10
2017,07,15,06,11,11.20
2017,07,15,06,12,11.30
2017,07,15,06,13,11.50
2017,07,15,06,14,11.60
2017,07,15,06,15,11.90
2017,07,15,06,16,12.10
2017,07,15,06,17,12.20
2017,07,15,06,18,12.30
2017,07,15,06,19,12.30
2017,07,15,06,20,12.30
2017,07,15,06,21,12.20
2017,07,15,06,22,12.20
2017,07,15,06,23,12.20
2017,07,15,06,24,12.20
2017,07,15,06,25,12.20
2017,07,15,06,26,12.30
2017,07,15,06,27,12.30
2017,07,15,06,28,12.40
2017,07,15,06,29,12.50
2017,07,15,06,30,12.70
2017,07,15,06,31,12.80
2017,07,15,06,32,12.90
2017,07,15,06,33,13.10
2017,07,15,06,34,13.20
2017,07,15,06,35,13.40
2017,07,15,06,36,13.50
2017,07,15,06,37,13.60
2017,07,15,06,38,13.70
2017,07,15,06,39,13.60
2017,07,15,06,40,13.40
2017,07,15,06,41,13.30
2017,07,15,06,42,13.10
2017,07,15,06,43,13.00
2017,07,15,06,44,12.90
2017,07,15,06,45,12.90
2017,07,15,06,46,13.00
2017,07,15,06,47,13.00
2017,07,15,06,48,13.10
2017,07,15,06,49,13.20
2017,07,15,06,50,13.30
2017,07,15,06,51,13.50
2017,07,15,06,52,13.60
2017,07,15,06,53,13.70
2017,07,15,06,54,13.90
2017,07,15,06,55,13.90
2017,07,15,06,56,13.90
2017,07,15,06,57,13.80
2017,07,15,06,58,13.80
2017,07,15,06,59,13.80
2017,07,15,07,00,13.70
2017,07,15,07,01,13.70
2017,07,15,07,02,13.80
2017,07,15,07,03,13.80
2017,07,15,07,04,13.80
2017,07,15,07,05,13.80
2017,07,15,07,06,13.80
2017,07,15,07,07,13.80
2017,07,15,07,08,13.80
2017,07,15,07,09,13.80
2017,07,15,07,10,13.80
2017,07,15,07,11,13.80
2017,07,15,07,12,13.90
2017,07,15,07,13,14.00
2017,07,15,07,14,14.00
2017,07,15,07,15,14.10
2017,07,15,07,16,14.20
2017,07,15,07,17,14.30
2017,07,15,07,18,14.30
2017,07,15,07,19,14.40
2017,07,15,07,20,14.50
2017,07,15,07,21,14.60
2017,07,15,07,22,14.70
2017,07,15,07,23,14.90
2017,07,15,07,24,15.00
2017,07,15,07,25,15.00
2017,07,15,07,26,15.10
2017,07,15,07,27,15.20
2017,07,15,07,28,15.30
2017,07,15,07,29,15.50
2017,07,15,07,30,15.60
2017,07,15,07,31,15.80
2017,07,15,07,32,15.90
2017,07,15,07,33,16.00
2017,07,15,07,34,16.10
2017,07,15,07,35,16.20
2017,07,15,07,36,16.30
2017,07,15,07,37,16.40
2017,07,15,07,38,16.50
2017,07,15,07,39,16.60
2017,07,15,07,40,16.80
2017,07,15,07,41,16.80
2017,07,15,07,42,16.90
2017,07,15,07,43,17.00
2017,07,15,07,44,17.10
2017,07,15,07,45,17.10
2017,07,15,07,46,17.10
2017,07,15,07,47,17.10
2017,07,15,07,48,17.10
2017,07,15,07,49,17.10
2017,07,15,07,50,17.20
2017,07,15,07,51,17.20
2017,07,15,07,52,17.30
2017,07,15,07,53,17.30
2017,07,15,07,54,17.40
2017,07,15,07,55,17.50
2017,07,15,07,56,17.60
2017,07,15,07,57,17.70
2017,07,15,07,58,17.80
2017,07,15,07,59,17.90
2017,07,15,08,00,18.00
2017,07,15,08,01,18.10
2017,07,15,08,02,18.20
2017,07,15,08,03,18.20
2017,07,15,08,04,18.30
2017,07,15,08,05,18.30
2017,07,15,08,06,18.40
2017,07,15,08,07,18.40
2017,07,15,08,08,18.40
2017,07,15,08,09,18.40
2017,07,15,08,10,18.40
2017,07,15,08,11,18.40
2017,07,15,08,12,18.40
2017,07,15,08,13,18.40
2017,07,15,08,14,18.40
2017,07,15,08,15,18.40
2017,07,15,08,16,18.50
2017,07,15,08,17,18.70
2017,07,15,08,18,18.80
2017,07,15,08,19,18.80
2017,07,15,08,20,18.90
2017,07,15,08,21,18.90
2017,07,15,08,22,19.00
2017,07,15,08,23,19.10
2017,07,15,08,24,19.10
2017,07,15,08,25,19.10
2017,07,15,08,26,19.00
2017,07,15,08,27,19.00
2017,07,15,08,28,18.90
2017,07,15,08,29,19.00
2017,07,15,08,30,19.10
2017,07,15,08,31,19.10
2017,07,15,08,32,19.10
2017,07,15,08,33,19.00
2017,07,15,08,34,19.00
2017,07,15,08,35,19.00
2017,07,15,08,36,19.00
2017,07,15,08,37,19.00
2017,07,15,08,38,19.10
2017,07,15,08,39,19.10
2017,07,15,08,40,19.20
2017,07,15,08,41,19.20
2017,07,15,08,42,19.20
2017,07,15,08,43,19.10
2017,07,15,08,44,19.00
2017,07,15,08,45,18.90
2017,07,15,08,46,18.90
2017,07,15,08,47,18.90
2017,07,15,08,48,18.80
2017,07,15,08,49,18.70
2017,07,15,08,50,18.60
2017,07,15,08,51,18.60
2017,07,15,08,52,18.70
2017,07,15,08,53,18.70
2017,07,15,08,54,18.70
2017,07,15,08,55,18.60
2017,07,15,08,56,18.50
2017,07,15,08,57,18.50
2017,07,15,08,58,18.40
2017,07,15,08,59,18.40
2017,07,15,09,00,18.30
2017,07,15,09,01,18.20
2017,07,15,09,02,18.20
2017,07,15,09,03,18.20
2017,07,15,09,04,18.10
2017,07,15,09,05,18.10
2017,07,15,09,06,18.10
2017,07,15,09,07,18.20
2017,07,15,09,08,18.20
2017,07,15,09,09,18.30
2017,07,15,09,10,18.40
2017,07,15,09,11,18.40
2017,07,15,09,12,18.40
2017,07,15,09,13,18.30
2017,07,15,09,14,18.30
2017,07,15,09,15,18.30
2017,07,15,09,16,18.40
2017,07,15,09,17,18.40
2017,07,15,09,18,18.50
2017,07,15,09,19,18.60
2017,07,15,09,20,18.70
2017,07,15,09,21,18.80
2017,07,15,09,22,18.80
2017,07,15,09,23,18.90
2017,07,15,09,24,19.00
2017,07,15,09,25,19.00
2017,07,15,09,26,19.00
2017,07,15,09,27,19.10
2017,07,15,09,28,19.20
2017,07,15,09,29,19.10
2017,07,15,09,30,19.10
2017,07,15,09,31,19.10
2017,07,15,09,32,19.10
2017,07,15,09,33,19.10
2017,07,15,09,34,19.20
2017,07,15,09,35,19.20
2017,07,15,09,36,19.20
2017,07,15,09,37,19.10
2017,07,15,09,38,19.00
2017,07,15,09,39,18.90
2017,07,15,09,40,18.90
2017,07,15,09,41,18.90
2017,07,15,09,42,18.90
2017,07,15,09,43,18.90
2017,07,15,09,44,19.00
2017,07,15,09,45,19.10
2017,07,15,09,46,19.10
2017,07,15,09,47,19.20
2017,07,15,09,48,19.20
2017,07,15,09,49,19.20
2017,07,15,09,50,19.20
2017,07,15,09,51,19.10
2017,07,15,09,52,19.00
2017,07,15,09,53,18.90
2017,07,15,09,54,18.90
2017,07,15,09,55,18.90
2017,07,15,09,56,19.00
2017,07,15,09,57,19.00
2017,07,15,09,58,19.00
2017,07,15,09,59,19.10
2017,07,15,10,00,19.10
2017,07,15,10,01,19.10
2017,07,15,10,02,19.20
2017,07,15,10,03,19.20
2017,07,15,10,04,19.10
2017,07,15,10,05,19.10
2017,07,15,10,06,19.10
2017,07,15,10,07,19.00
2017,07,15,10,08,18.90
2017,07,15,10,09,18.90
2017,07,15,10,10,18.90
2017,07,15,10,11,19.00
2017,07,15,10,12,19.00
2017,07,15,10,13,19.00
2017,07,15,10,14,19.00
2017,07,15,10,15,18.90
2017,07,15,10,16,18.90
2017,07,15,10,17,18.80
2017,07,15,10,18,18.80
2017,07,15,10,19,18.80
2017,07,15,10,20,18.90
2017,07,15,10,21,19.00
2017,07,15,10,22,19.00
2017,07,15,10,23,19.00
2017,07,15,10,24,19.00
2017,07,15,10,25,19.00
2017,07,15,10,26,19.00
2017,07,15,10,27,18.90
2017,07,15,10,28,18.90
2017,07,15,10,29,18.90
2017,07,15,10,30,19.00
2017,07,15,10,31,19.00
2017,07,15,10,32,19.10
2017,07,15,10,33,19.20
2017,07,15,10,34,19.20
2017,07,15,10,35,19.40
2017,07,15,10,36,19.50
2017,07,15,10,37,19.60
2017,07,15,10,38,19.60
2017,07,15,10,39,19.70
2017,07,15,10,40,19.70
2017,07,15,10,41,19.50
2017,07,15,10,42,19.30
2017,07,15,10,43,19.20
2017,07,15,10,44,19.10
2017,07,15,10,45,19.00
2017,07,15,10,46,19.00
2017,07,15,10,47,19.00
2017,07,15,10,48,18.90
2017,07,15,10,49,19.00
2017,07,15,10,50,19.00
2017,07,15,10,51,19.00
2017,07,15,10,52,19.00
2017,07,15,10,53,19.10
2017,07,15,10,54,19.10
2017,07,15,10,55,19.20
2017,07,15,10,56,19.20
2017,07,15,10,57,19.20
2017,07,15,10,58,19.30
2017,07,15,10,59,19.20
2017,07,15,11,00,19.20
2017,07,15,11,01,19.10
2017,07,15,11,02,19.10
2017,07,15,11,03,19.20
2017,07,15,11,04,19.20
2017,07,15,11,05,19.10
2017,07,15,11,06,19.20
2017,07,15,11,07,19.10
2017,07,15,11,08,19.00
2017,07,15,11,09,19.00
2017,07,15,11,10,19.00
2017,07,15,11,11,18.90
2017,07,15,11,12,18.90
2017,07,15,11,13,18.90
2017,07,15,11,14,19.00
2017,07,15,11,15,19.10
2017,07,15,11,16,19.10
2017,07,15,11,17,19.00
2017,07,15,11,18,19.00
2017,07,15,11,19,18.90
2017,07,15,11,20,18.80
2017,07,15,11,21,18.80
2017,07,15,11,22,18.90
2017,07,15,11,23,19.00
2017,07,15,11,24,19.20
2017,07,15,11,25,19.20
2017,07,15,11,26,19.20
2017,07,15,11,27,19.10
2017,07,15,11,28,18.90
2017,07,15,11,29,18.70
2017,07,15,11,30,18.60
2017,07,15,11,31,18.50
2017,07,15,11,32,18.50
2017,07,15,11,33,18.50
2017,07,15,11,34,18.40
2017,07,15,11,35,18.40
2017,07,15,11,36,18.40
2017,07,15,11,37,18.50
2017,07,15,11,38,18.60
2017,07,15,11,39,18.60
2017,07,15,11,40,18.80
2017,07,15,11,41,18.80
2017,07,15,11,42,18.70
2017,07,15,11,43,18.60
2017,07,15,11,44,18.50
2017,07,15,11,45,18.40
2017,07,15,11,46,18.40
2017,07,15,11,47,18.40
2017,07,15,11,48,18.30
2017,07,15,11,49,18.30
2017,07,15,11,50,18.30
2017,07,15,11,51,18.30
2017,07,15,11,52,18.40
2017,07,15,11,53,18.40
2017,07,15,11,54,18.40
2017,07,15,11,55,18.50
2017,07,15,11,56,18.50
2017,07,15,11,57,18.50
2017,07,15,11,58,18.40
2017,07,15,11,59,18.40
2017,07,15,12,00,18.40
2017,07,15,12,01,18.50
2017,07,15,12,02,18.60
2017,07,15,12,03,18.80
2017,07,15,12,04,18.90
2017,07,15,12,05,18.90
2017,07,15,12,06,18.90
2017,07,15,12,07,19.00
2017,07,15,12,08,19.00
2017,07,15,12,09,19.10
2017,07,15,12,10,19.10
2017,07,15,12,11,19.10
2017,07,15,12,12,19.10
2017,07,15,12,13,19.10
2017,07,15,12,14,19.10
2017,07,15,12,15,19.10
2017,07,15,12,16,19.00
2017,07,15,12,17,19.00
2017,07,15,12,18,19.00
2017,07,15,12,19,19.00
2017,07,15,12,20,19.10
2017,07,15,12,21,19.20
2017,07,15,12,22,19.20
2017,07,15,12,23,19.20
2017,07,15,12,24,19.10
2017,07,15,12,25,19.00
2017,07,15,12,26,18.90
2017,07,15,12,27,18.90
2017,07,15,12,28,18.90
2017,07,15,12,29,18.90
2017,07,15,12,30,18.90
2017,07,15,12,31,19.00
2017,07,15,12,32,19.10
2017,07,15,12,33,19.30
2017,07,15,12,34,19.40
2017,07,15,12,35,19.50
2017,07,15,12,36,19.50
2017,07,15,12,37,19.50
2017,07,15,12,38,19.60
2017,07,15,12,39,19.50
2017,07,15,12,40,19.40
2017,07,15,12,41,19.40
2017,07,15,12,42,19.40
2017,07,15,12,43,19.50
2017,07,15,12,44,19.40
2017,07,15,12,45,19.40
2017,07,15,12,46,19.50
2017,07,15,12,47,19.50
2017,07,15,12,48,19.60
2017,07,15,12,49,19.70
2017,07,15,12,50,19.70
2017,07,15,12,51,19.60
2017,07,15,12,52,19.60
2017,07,15,12,53,19.60
2017,07,15,12,54,19.60
2017,07,15,12,55,19.70
2017,07,15,12,56,19.60
2017,07,15,12,57,19.60
2017,07,15,12,58,19.60
2017,07,15,12,59,19.50
2017,07,15,13,00,19.50
2017,07,15,13,01,19.50
2017,07,15,13,02,19.40
2017,07,15,13,03,19.40
2017,07,15,13,04,19.30
2017,07,15,13,05,19.30
2017,07,15,13,06,19.30
2017,07,15,13,07,19.30
2017,07,15,13,08,19.50
2017,07,15,13,09,19.60
2017,07,15,13,10,19.60
2017,07,15,13,11,19.50
2017,07,15,13,12,19.40
2017,07,15,13,13,19.60
2017,07,15,13,14,19.80
2017,07,15,13,15,20.00
2017,07,15,13,16,20.10
2017,07,15,13,17,20.20
2017,07,15,13,18,20.10
2017,07,15,13,19,20.10
2017,07,15,13,20,20.00
2017,07,15,13,21,20.00
2017,07,15,13,22,19.90
2017,07,15,13,23,19.90
2017,07,15,13,24,19.90
2017,07,15,13,25,19.80
2017,07,15,13,26,19.70
2017,07,15,13,27,19.60
2017,07,15,13,28,19.60
2017,07,15,13,29,19.50
2017,07,15,13,30,19.50
2017,07,15,13,31,19.60
2017,07,15,13,32,19.60
2017,07,15,13,33,19.60
2017,07,15,13,34,19.50
2017,07,15,13,35,19.40
2017,07,15,13,36,19.20
2017,07,15,13,37,19.10
2017,07,15,13,38,19.10
2017,07,15,13,39,19.10
2017,07,15,13,40,19.10
2017,07,15,13,41,19.10
2017,07,15,13,42,19.10
2017,07,15,13,43,19.10
2017,07,15,13,44,19.10
2017,07,15,13,45,19.20
2017,07,15,13,46,19.20
2017,07,15,13,47,19.20
2017,07,15,13,48,19.20
2017,07,15,13,49,19.30
2017,07,15,13,50,19.30
2017,07,15,13,51,19.30
2017,07,15,13,52,19.30
2017,07,15,13,53,19.30
2017,07,15,13,54,19.30
2017,07,15,13,55,19.20
2017,07,15,13,56,19.20
2017,07,15,13,57,19.20
2017,07,15,13,58,19.40
2017,07,15,13,59,19.50
2017,07,15,14,00,19.50
2017,07,15,14,01,19.60
2017,07,15,14,02,19.60
2017,07,15,14,03,19.70
2017,07,15,14,04,19.80
2017,07,15,14,05,19.90
2017,07,15,14,06,20.00
2017,07,15,14,07,20.10
2017,07,15,14,08,20.20
2017,07,15,14,09,20.30
2017,07,15,14,10,20.40
2017,07,15,14,11,20.40
2017,07,15,14,12,20.30
2017,07,15,14,13,20.20
2017,07,15,14,14,20.10
2017,07,15,14,15,20.00
2017,07,15,14,16,20.00
2017,07,15,14,17,19.90
2017,07,15,14,18,20.00
2017,07,15,14,19,20.00
2017,07,15,14,20,20.00
2017,07,15,14,21,20.00
2017,07,15,14,22,20.00
2017,07,15,14,23,20.10
2017,07,15,14,24,20.10
2017,07,15,14,25,20.00
2017,07,15,14,26,20.00
2017,07,15,14,27,20.00
2017,07,15,14,28,20.00
2017,07,15,14,29,20.00
2017,07,15,14,30,20.10
2017,07,15,14,31,20.20
2017,07,15,14,32,20.20
2017,07,15,14,33,20.30
2017,07,15,14,34,20.40
2017,07,15,14,35,20.40
2017,07,15,14,36,20.40
2017,07,15,14,37,20.40
2017,07,15,14,38,20.40
2017,07,15,14,39,20.40
2017,07,15,14,40,20.20
2017,07,15,14,41,20.20
2017,07,15,14,42,20.10
2017,07,15,14,43,20.00
2017,07,15,14,44,19.90
2017,07,15,14,45,19.90
2017,07,15,14,46,19.80
2017,07,15,14,47,19.80
2017,07,15,14,48,19.80
2017,07,15,14,49,19.80
2017,07,15,14,50,19.90
2017,07,15,14,51,19.90
2017,07,15,14,52,19.90
2017,07,15,14,53,20.00
2017,07,15,14,54,20.10
2017,07,15,14,55,20.20
2017,07,15,14,56,20.20
2017,07,15,14,57,20.40
2017,07,15,14,58,20.40
2017,07,15,14,59,20.50
2017,07,15,15,00,20.40
2017,07,15,15,01,20.40
2017,07,15,15,02,20.40
2017,07,15,15,03,20.30
2017,07,15,15,04,20.20
2017,07,15,15,05,20.20
2017,07,15,15,06,20.20
2017,07,15,15,07,20.20
2017,07,15,15,08,20.20
2017,07,15,15,09,20.10
2017,07,15,15,10,20.10
2017,07,15,15,11,20.00
2017,07,15,15,12,20.00
2017,07,15,15,13,19.90
2017,07,15,15,14,19.80
2017,07,15,15,15,19.80
2017,07,15,15,16,19.90
2017,07,15,15,17,19.90
2017,07,15,15,18,20.00
2017,07,15,15,19,20.10
2017,07,15,15,20,20.20
2017,07,15,15,21,20.30
2017,07,15,15,22,20.30
2017,07,15,15,23,20.40
2017,07,15,15,24,20.40
2017,07,15,15,25,20.40
2017,07,15,15,26,20.40
2017,07,15,15,27,20.30
2017,07,15,15,28,20.30
2017,07,15,15,29,20.30
2017,07,15,15,30,20.20
2017,07,15,15,31,20.20
2017,07,15,15,32,20.20
2017,07,15,15,33,20.20
2017,07,15,15,34,20.30
2017,07,15,15,35,20.30
2017,07,15,15,36,20.30
2017,07,15,15,37,20.40
2017,07,15,15,38,20.30
2017,07,15,15,39,20.40
2017,07,15,15,40,20.40
2017,07,15,15,41,20.50
2017,07,15,15,42,20.50
2017,07,15,15,43,20.60
2017,07,15,15,44,20.60
2017,07,15,15,45,20.70
2017,07,15,15,46,20.80
2017,07,15,15,47,20.80
2017,07,15,15,48,20.70
2017,07,15,15,49,20.70
2017,07,15,15,50,20.60
2017,07,15,15,51,20.60
2017,07,15,15,52,20.60
2017,07,15,15,53,20.60
2017,07,15,15,54,20.60
2017,07,15,15,55,20.70
2017,07,15,15,56,20.70
2017,07,15,15,57,20.70
2017,07,15,15,58,20.70
2017,07,15,15,59,20.60
2017,07,15,16,00,20.60
2017,07,15,16,01,20.60
2017,07,15,16,02,20.60
2017,07,15,16,03,20.70
2017,07,15,16,04,20.70
2017,07,15,16,05,20.70
2017,07,15,16,06,20.60
2017,07,15,16,07,20.60
2017,07,15,16,08,20.50
2017,07,15,16,09,20.50
2017,07,15,16,10,20.50
2017,07,15,16,11,20.50
2017,07,15,16,12,20.40
2017,07,15,16,13,20.40
2017,07,15,16,14,20.50
2017,07,15,16,15,20.50
2017,07,15,16,16,20.60
2017,07,15,16,17,20.60
2017,07,15,16,18,20.70
2017,07,15,16,19,20.70
2017,07,15,16,20,20.80
2017,07,15,16,21,20.70
2017,07,15,16,22,20.70
2017,07,15,16,23,20.70
2017,07,15,16,24,20.60
2017,07,15,16,25,20.50
2017,07,15,16,26,20.50
2017,07,15,16,27,20.40
2017,07,15,16,28,20.30
2017,07,15,16,29,20.30
2017,07,15,16,30,20.30
2017,07,15,16,31,20.30
2017,07,15,16,32,20.30
2017,07,15,16,33,20.30
2017,07,15,16,34,20.30
2017,07,15,16,35,20.30
2017,07,15,16,36,20.30
2017,07,15,16,37,20.30
2017,07,15,16,38,20.30
2017,07,15,16,39,20.30
2017,07,15,16,40,20.30
2017,07,15,16,41,20.30
2017,07,15,16,42,20.30
2017,07,15,16,43,20.20
2017,07,15,16,44,20.20
2017,07,15,16,45,20.20
2017,07,15,16,46,20.10
2017,07,15,16,47,20.10
2017,07,15,16,48,20.10
2017,07,15,16,49,20.10
2017,07,15,16,50,20.10
2017,07,15,16,51,20.20
2017,07,15,16,52,20.20
2017,07,15,16,53,20.20
2017,07,15,16,54,20.20
2017,07,15,16,55,20.20
2017,07,15,16,56,20.20
2017,07,15,16,57,20.20
2017,07,15,16,58,20.20
2017,07,15,16,59,20.20
2017,07,15,17,00,20.20
2017,07,15,17,01,20.20
2017,07,15,17,02,20.20
2017,07,15,17,03,20.20
2017,07,15,17,04,20.30
2017,07,15,17,05,20.30
2017,07,15,17,06,20.20
2017,07,15,17,07,20.20
2017,07,15,17,08,20.20
2017,07,15,17,09,20.20
2017,07,15,17,10,20.20
2017,07,15,17,11,20.20
2017,07,15,17,12,20.20
2017,07,15,17,13,20.20
2017,07,15,17,14,20.20
2017,07,15,17,15,20.20
2017,07,15,17,16,20.20
2017,07,15,17,17,20.20
2017,07,15,17,18,20.20
2017,07,15,17,19,20.20